P/2022 L3 ( ATLAS )

Japanese version
Home page
Updated on July 16, 2022

---------------------------------------------------------------------

* Profile

Discovery Date June 12, 2022
Magnitude 17.6 mag
Discoverer Asteroid Terrestrial-Impact Last Alert System (ATLAS) search program

* Orbital Elements

Epoch 2022 Aug. 9.0 TT = JDT 2459800.5
T 2022 Nov. 1.87371 TT                                  Rudenko
q   2.4036948            (2000.0)            P               Q
n   0.06478184     Peri.   11.41174     +0.76121633     -0.62244731
a   6.1399833      Node    29.61983     +0.56224469     +0.49363917
e   0.6085177      Incl.   21.60199     +0.32315724     +0.60735468
P  15.2
From 90 observations 2022 June 12-July 9, mean residual 0".7.

* Finding Charts

* Magnitudes Graph

        m1 = 11.0 + 5 log d + 10.0 log r

---------------------------------------------------------------------

The orbital elements are published on M.P.E.C. 2022-O01.
The charts are made with StellaNavigator Ver.10 (AstroArts).
The magnitudes graphs are made with Comet for Windows.

---------------------------------------------------------------------

Copyright(C) Seiichi Yoshida (comet@aerith.net). All rights reserved.